User: anonymous   Login
Location: Unspecified
(0.0000°N, 0.0000°E)
Time: 11:02:24
(UTC+00:00)
Language:

WASEDA-SAT2 - Orbit

View from above orbital plane
View from above orbital plane
View from above satellite
View from above satellite

Ground track
Ground track

The orbit data is extracted from the following two-line orbital elements,

1 36574U 10020B   10192.71542822  .05314980 -55155-5  67545-3 0  9999
2 36574 029.9698 217.2715 0004364 151.2593 209.1628 16.34718051  8303
Epoch (UTC): 11 July 2010 17:10:12
Eccentricity: 0.0004364
inclination: 29.9698°
perigee height: 177 km
apogee height: 183 km
right ascension of ascending node: 217.2715°
argument of perigee: 151.2593°
revolutions per day: 16.34718051
mean anomaly at epoch: 209.1628°
orbit number at epoch: 830

The dashed part of the orbit path shows where the satellite is in the earth's shadow,  

DLR